UAE27 YBCS-YSSY

Flight info

Callsign UAE27
Flight time N/A
Altitude 39000
Route CS Y177 AKROM Y153 ARNTU/N0484F410 Y153 ROKUU H652 BOREE
Aircraft A35K/H-SDE2E3GHIJ3J4J5LM1ORWXY/LB1D1

Departure

Time 2026-04-28 09:02
Airport Cairns International Airport (YBCS)

Arrival

Time N/A
Airport Sydney Kingsford Smith International Airport (YSSY)
Time Latitude Longitude Altitude Speed Heading
2026-04-28 08:37 -16.87302 145.75272 20 ft 0 kts 156°
2026-04-28 08:51 -16.87294 145.75268 6 ft 3 kts 166°
2026-04-28 08:51 -16.87273 145.75263 9 ft 4 kts 175°
2026-04-28 08:52 -16.87246 145.75263 9 ft 4 kts 185°
2026-04-28 08:52 -16.87230 145.75265 12 ft 1 kts 184°
2026-04-28 08:52 -16.87228 145.75265 12 ft 0 kts 184°
2026-04-28 08:55 -16.87229 145.75264 9 ft 1 kts 189°
2026-04-28 08:55 -16.87237 145.75238 12 ft 8 kts 255°
2026-04-28 08:56 -16.87262 145.75165 10 ft 12 kts 249°
2026-04-28 08:56 -16.87299 145.75070 7 ft 16 kts 248°
2026-04-28 08:56 -16.87317 145.74949 2 ft 19 kts 282°
2026-04-28 08:56 -16.87224 145.74844 1 ft 22 kts 333°
2026-04-28 08:57 -16.87086 145.74776 1 ft 18 kts 324°
2026-04-28 08:57 -16.87060 145.74723 -1 ft 0 kts 276°
2026-04-28 08:58 -16.87060 145.74721 -1 ft 2 kts 276°
2026-04-28 08:58 -16.87065 145.74684 -2 ft 9 kts 253°
2026-04-28 08:59 -16.87079 145.74608 -3 ft 12 kts 282°
2026-04-28 08:59 -16.87017 145.74553 -3 ft 13 kts 334°
2026-04-28 08:59 -16.86930 145.74511 -1 ft 13 kts 335°
2026-04-28 08:59 -16.86827 145.74467 -1 ft 18 kts 338°
2026-04-28 09:00 -16.86707 145.74414 1 ft 19 kts 336°
2026-04-28 09:00 -16.86631 145.74363 3 ft 0 kts 349°
2026-04-28 09:00 -16.86626 145.74363 6 ft 2 kts
2026-04-28 09:00 -16.86615 145.74374 6 ft 2 kts 60°
2026-04-28 09:01 -16.86631 145.74400 7 ft 4 kts 174°
2026-04-28 09:01 -16.86695 145.74411 1 ft 15 kts 164°
2026-04-28 09:01 -16.86812 145.74461 1 ft 27 kts 157°
2026-04-28 09:01 -16.87302 145.74682 4 ft 130 kts 155°
2026-04-28 09:02 -16.88339 145.75167 504 ft 184 kts 156°
2026-04-28 09:02 -16.89460 145.75978 1455 ft 218 kts 131°
2026-04-28 09:02 -16.89957 145.77544 2644 ft 239 kts 92°
2026-04-28 09:02 -16.89420 145.79229 3807 ft 261 kts 61°
2026-04-28 09:03 -16.87956 145.80541 4534 ft 301 kts 31°
2026-04-28 09:03 -16.85989 145.81223 4913 ft 289 kts 18°
2026-04-28 09:03 -16.84247 145.81997 5039 ft 259 kts 46°
2026-04-28 09:03 -16.83288 145.83465 5025 ft 238 kts 81°
2026-04-28 09:04 -16.83369 145.85101 5004 ft 223 kts 114°
2026-04-28 09:04 -16.84052 145.86530 5015 ft 219 kts 125°
2026-04-28 09:04 -16.84995 145.87769 4996 ft 218 kts 137°
2026-04-28 09:04 -16.86186 145.88734 4991 ft 217 kts 146°
2026-04-28 09:05 -16.87457 145.89578 4985 ft 216 kts 147°
2026-04-28 09:05 -16.88747 145.90391 4975 ft 215 kts 148°
2026-04-28 09:05 -16.90031 145.91185 4957 ft 214 kts 149°
2026-04-28 09:05 -16.91317 145.91974 4948 ft 214 kts 149°
2026-04-28 09:06 -16.92586 145.92751 4966 ft 214 kts 149°
2026-04-28 09:06 -16.93935 145.93572 5135 ft 247 kts 149°
2026-04-28 09:06 -16.95486 145.94517 5815 ft 261 kts 149°
2026-04-28 09:06 -16.97036 145.95459 6949 ft 255 kts 149°
2026-04-28 09:07 -16.98579 145.96394 7955 ft 259 kts 149°
2026-04-28 09:07 -17.00172 145.97362 8815 ft 269 kts 149°
2026-04-28 09:07 -17.01801 145.98350 9789 ft 272 kts 149°
2026-04-28 09:07 -17.03478 145.99368 10453 ft 289 kts 149°
2026-04-28 09:08 -17.05293 146.00470 10781 ft 315 kts 149°
2026-04-28 09:08 -17.07257 146.01661 11115 ft 338 kts 149°
2026-04-28 09:08 -17.09353 146.02932 11503 ft 357 kts 149°
2026-04-28 09:08 -17.11538 146.04257 12092 ft 367 kts 149°
2026-04-28 09:09 -17.13761 146.05607 12874 ft 371 kts 149°
2026-04-28 09:09 -17.15983 146.06956 13623 ft 377 kts 150°
2026-04-28 09:09 -17.18280 146.08350 14191 ft 386 kts 150°
2026-04-28 09:09 -17.20619 146.09771 14784 ft 391 kts 150°
2026-04-28 09:10 -17.22986 146.11208 15385 ft 397 kts 151°
2026-04-28 09:10 -17.25399 146.12675 15936 ft 404 kts 151°
2026-04-28 09:10 -17.27846 146.14163 16498 ft 409 kts 152°
2026-04-28 09:10 -17.30326 146.15669 17120 ft 413 kts 153°
2026-04-28 09:11 -17.32829 146.17190 17759 ft 417 kts 152°
2026-04-28 09:11 -17.35346 146.18723 18370 ft 421 kts 153°
2026-04-28 09:11 -17.37893 146.20273 18857 ft 425 kts 153°
2026-04-28 09:11 -17.40451 146.21832 19411 ft 427 kts 153°
2026-04-28 09:12 -17.43004 146.23388 20027 ft 429 kts 153°
2026-04-28 09:12 -17.45591 146.24965 20651 ft 431 kts 153°
2026-04-28 09:12 -17.48192 146.26551 21248 ft 434 kts 153°
2026-04-28 09:12 -17.50807 146.28146 21854 ft 437 kts 153°
2026-04-28 09:13 -17.53439 146.29751 22471 ft 439 kts 153°
2026-04-28 09:13 -17.56092 146.31370 23070 ft 443 kts 153°
2026-04-28 09:13 -17.58758 146.32997 23598 ft 447 kts 153°
2026-04-28 09:13 -17.61460 146.34646 24107 ft 450 kts 154°
2026-04-28 09:14 -17.64178 146.36307 24613 ft 454 kts 154°
2026-04-28 09:14 -17.66920 146.37982 25159 ft 457 kts 154°
2026-04-28 09:14 -17.69684 146.39671 25703 ft 461 kts 154°
2026-04-28 09:14 -17.72472 146.41376 26241 ft 465 kts 154°
2026-04-28 09:15 -17.75273 146.43089 26801 ft 468 kts 155°
2026-04-28 09:15 -17.78073 146.44803 27336 ft 472 kts 155°
2026-04-28 09:15 -17.80920 146.46546 27869 ft 475 kts 155°
2026-04-28 09:15 -17.83788 146.48302 28386 ft 479 kts 155°
2026-04-28 09:16 -17.86674 146.50070 28906 ft 483 kts 155°
2026-04-28 09:16 -17.89589 146.51856 29406 ft 487 kts 155°
2026-04-28 09:16 -17.92528 146.53658 29896 ft 490 kts 155°
2026-04-28 09:16 -17.95485 146.55472 30333 ft 494 kts 155°
2026-04-28 09:17 -17.98456 146.57296 30747 ft 496 kts 155°
2026-04-28 09:17 -18.01447 146.59132 31167 ft 498 kts 155°
2026-04-28 09:17 -18.04445 146.60974 31572 ft 500 kts 155°
2026-04-28 09:17 -18.07464 146.62829 31961 ft 502 kts 155°
2026-04-28 09:18 -18.10485 146.64686 32360 ft 503 kts 155°
2026-04-28 09:18 -18.13498 146.66540 32902 ft 501 kts 155°
2026-04-28 09:18 -18.16497 146.68388 33511 ft 498 kts 156°
2026-04-28 09:18 -18.19475 146.70221 34067 ft 495 kts 156°
2026-04-28 09:19 -18.22442 146.72048 34476 ft 494 kts 156°
2026-04-28 09:19 -18.25407 146.73874 34840 ft 494 kts 156°
2026-04-28 09:19 -18.28372 146.75700 35189 ft 494 kts 156°
2026-04-28 09:19 -18.31346 146.77533 35554 ft 494 kts 156°
2026-04-28 09:20 -18.34348 146.79264 35896 ft 490 kts 161°
2026-04-28 09:20 -18.37456 146.80537 36215 ft 482 kts 169°
2026-04-28 09:20 -18.40670 146.81520 36550 ft 480 kts 171°